Time,TemperatureF,DewpointF,PressureIn,WindDirection,WindDirectionDegrees,WindSpeedMPH,WindSpeedGustMPH,Humidity,HourlyPrecipIn,Conditions,Clouds,dailyrainin,SoftwareType,DateUTC
2014-08-29 00:04:00,81.7,50.6,29.73,WNW,300,0.0,1.0,34,0.00,,,0.00,Wunderground v.1.15,2014-08-29 07:04:00,
2014-08-29 00:09:00,81.6,50.5,29.73,WNW,300,0.0,1.0,34,0.00,,,0.00,Wunderground v.1.15,2014-08-29 07:09:00,
2014-08-29 00:15:00,81.5,52.0,29.73,WNW,300,0.0,0.0,36,0.00,,,0.00,Wunderground v.1.15,2014-08-29 07:15:00,
2014-08-29 00:21:00,81.2,51.7,29.72,WNW,300,0.0,0.0,36,0.00,,,0.00,Wunderground v.1.15,2014-08-29 07:21:00,
2014-08-29 00:26:00,80.7,52.7,29.73,WNW,300,0.0,0.0,38,0.00,,,0.00,Wunderground v.1.15,2014-08-29 07:26:00,
2014-08-29 00:31:00,80.2,52.3,29.72,WNW,300,0.0,0.0,38,0.00,,,0.00,Wunderground v.1.15,2014-08-29 07:31:00,
2014-08-29 00:37:00,79.9,54.1,29.73,WNW,300,0.0,0.0,41,0.00,,,0.00,Wunderground v.1.15,2014-08-29 07:37:00,
2014-08-29 00:43:00,79.5,54.4,29.73,WNW,300,0.0,0.0,42,0.00,,,0.00,Wunderground v.1.15,2014-08-29 07:43:00,
2014-08-29 00:49:00,79.1,53.4,29.73,WNW,300,0.0,0.0,41,0.00,,,0.00,Wunderground v.1.15,2014-08-29 07:49:00,
2014-08-29 00:54:00,78.7,54.3,29.73,WNW,300,0.0,0.0,43,0.00,,,0.00,Wunderground v.1.15,2014-08-29 07:54:00,
2014-08-29 01:01:00,78.3,53.3,29.73,WNW,300,0.0,0.0,42,0.00,,,0.00,Wunderground v.1.15,2014-08-29 08:01:00,
2014-08-29 01:06:00,78.0,54.3,29.73,WNW,300,0.0,0.0,44,0.00,,,0.00,Wunderground v.1.15,2014-08-29 08:06:00,
2014-08-29 01:11:00,77.7,53.4,29.73,WNW,300,1.0,1.0,43,0.00,,,0.00,Wunderground v.1.15,2014-08-29 08:11:00,
2014-08-29 01:16:00,77.4,53.8,29.73,WNW,300,0.0,1.0,44,0.00,,,0.00,Wunderground v.1.15,2014-08-29 08:16:00,
2014-08-29 01:21:00,77.1,52.9,29.73,WNW,300,0.0,0.0,43,0.00,,,0.00,Wunderground v.1.15,2014-08-29 08:21:00,
2014-08-29 01:27:00,76.9,53.9,29.73,WNW,300,0.0,0.0,45,0.00,,,0.00,Wunderground v.1.15,2014-08-29 08:27:00,
2014-08-29 01:33:00,76.8,53.2,29.72,WNW,300,0.0,0.0,44,0.00,,,0.00,Wunderground v.1.15,2014-08-29 08:33:00,
2014-08-29 01:38:00,76.7,53.1,29.72,WNW,300,0.0,0.0,44,0.00,,,0.00,Wunderground v.1.15,2014-08-29 08:38:00,
2014-08-29 01:44:00,76.5,54.2,29.72,WNW,300,0.0,0.0,46,0.00,,,0.00,Wunderground v.1.15,2014-08-29 08:44:00,
2014-08-29 01:50:00,76.4,54.1,29.72,WNW,300,0.0,0.0,46,0.00,,,0.00,Wunderground v.1.15,2014-08-29 08:50:00,
2014-08-29 01:56:00,76.1,54.4,29.72,WNW,300,0.0,0.0,47,0.00,,,0.00,Wunderground v.1.15,2014-08-29 08:56:00,
2014-08-29 02:01:00,75.9,54.8,29.72,WNW,300,0.0,0.0,48,0.00,,,0.00,Wunderground v.1.15,2014-08-29 09:01:00,
2014-08-29 02:06:00,75.7,54.6,29.72,WNW,300,0.0,0.0,48,0.00,,,0.00,Wunderground v.1.15,2014-08-29 09:06:00,
2014-08-29 02:12:00,75.5,55.6,29.72,WNW,300,0.0,0.0,50,0.00,,,0.00,Wunderground v.1.15,2014-08-29 09:12:00,
2014-08-29 02:17:00,75.3,55.4,29.72,WNW,300,0.0,0.0,50,0.00,,,0.00,Wunderground v.1.15,2014-08-29 09:17:00,
2014-08-29 02:22:00,75.1,55.2,29.72,WNW,300,0.0,0.0,50,0.00,,,0.00,Wunderground v.1.15,2014-08-29 09:22:00,
2014-08-29 02:27:00,74.9,56.1,29.72,WNW,300,0.0,0.0,52,0.00,,,0.00,Wunderground v.1.15,2014-08-29 09:27:00,
2014-08-29 02:32:00,74.7,55.4,29.72,WNW,300,0.0,0.0,51,0.00,,,0.00,Wunderground v.1.15,2014-08-29 09:32:00,
2014-08-29 02:37:00,74.5,55.2,29.72,WNW,300,0.0,0.0,51,0.00,,,0.00,Wunderground v.1.15,2014-08-29 09:37:00,
2014-08-29 02:42:00,74.3,53.9,29.72,WNW,300,0.0,0.0,49,0.00,,,0.00,Wunderground v.1.15,2014-08-29 09:42:00,
2014-08-29 02:47:00,74.2,55.4,29.72,WNW,300,0.0,0.0,52,0.00,,,0.00,Wunderground v.1.15,2014-08-29 09:47:00,
2014-08-29 02:52:00,74.1,54.8,29.72,WNW,300,0.0,0.0,51,0.00,,,0.00,Wunderground v.1.15,2014-08-29 09:52:00,
2014-08-29 02:57:00,74.0,56.8,29.72,WNW,300,0.0,0.0,55,0.00,,,0.00,Wunderground v.1.15,2014-08-29 09:57:00,
2014-08-29 03:02:00,73.9,55.7,29.72,WNW,300,0.0,0.0,53,0.00,,,0.00,Wunderground v.1.15,2014-08-29 10:02:00,
2014-08-29 03:07:00,73.7,55.5,29.72,WNW,300,0.0,0.0,53,0.00,,,0.00,Wunderground v.1.15,2014-08-29 10:07:00,
2014-08-29 03:12:00,73.5,55.8,29.71,WNW,300,0.0,0.0,54,0.00,,,0.00,Wunderground v.1.15,2014-08-29 10:12:00,
2014-08-29 03:17:00,73.3,56.2,29.71,WNW,300,0.0,0.0,55,0.00,,,0.00,Wunderground v.1.15,2014-08-29 10:17:00,
2014-08-29 03:22:00,73.1,55.5,29.71,WNW,300,0.0,0.0,54,0.00,,,0.00,Wunderground v.1.15,2014-08-29 10:22:00,
2014-08-29 03:27:00,72.9,55.3,29.71,WNW,300,0.0,0.0,54,0.00,,,0.00,Wunderground v.1.15,2014-08-29 10:27:00,
2014-08-29 03:32:00,72.8,54.1,29.71,WNW,300,0.0,0.0,52,0.00,,,0.00,Wunderground v.1.15,2014-08-29 10:32:00,
2014-08-29 03:37:00,72.7,54.1,29.71,WNW,300,0.0,0.0,52,0.00,,,0.00,Wunderground v.1.15,2014-08-29 10:37:00,
2014-08-29 03:42:00,72.7,54.1,29.71,WNW,300,0.0,0.0,52,0.00,,,0.00,Wunderground v.1.15,2014-08-29 10:42:00,
2014-08-29 03:47:00,72.7,55.1,29.71,WNW,300,0.0,0.0,54,0.00,,,0.00,Wunderground v.1.15,2014-08-29 10:47:00,
2014-08-29 03:52:00,72.6,55.0,29.71,WNW,300,0.0,0.0,54,0.00,,,0.00,Wunderground v.1.15,2014-08-29 10:52:00,
2014-08-29 03:57:00,72.5,55.9,29.71,WNW,300,0.0,0.0,56,0.00,,,0.00,Wunderground v.1.15,2014-08-29 10:57:00,
2014-08-29 04:02:00,72.4,55.8,29.71,WNW,300,0.0,0.0,56,0.00,,,0.00,Wunderground v.1.15,2014-08-29 11:02:00,
2014-08-29 04:07:00,72.2,55.6,29.71,WNW,300,0.0,0.0,56,0.00,,,0.00,Wunderground v.1.15,2014-08-29 11:07:00,
2014-08-29 04:12:00,72.0,55.9,29.71,WNW,300,0.0,0.0,57,0.00,,,0.00,Wunderground v.1.15,2014-08-29 11:12:00,
2014-08-29 04:17:00,71.8,54.8,29.71,WNW,300,0.0,0.0,55,0.00,,,0.00,Wunderground v.1.15,2014-08-29 11:17:00,
2014-08-29 04:22:00,71.5,54.0,29.71,WNW,300,0.0,0.0,54,0.00,,,0.00,Wunderground v.1.15,2014-08-29 11:22:00,
2014-08-29 04:27:00,71.4,53.4,29.71,WNW,300,0.0,0.0,53,0.00,,,0.00,Wunderground v.1.15,2014-08-29 11:27:00,
2014-08-29 04:32:00,71.4,53.9,29.71,WNW,300,0.0,0.0,54,0.00,,,0.00,Wunderground v.1.15,2014-08-29 11:32:00,
2014-08-29 04:37:00,71.4,55.9,29.71,WNW,300,0.0,0.0,58,0.00,,,0.00,Wunderground v.1.15,2014-08-29 11:37:00,
2014-08-29 04:42:00,71.4,56.3,29.71,WNW,300,0.0,0.0,59,0.00,,,0.00,Wunderground v.1.15,2014-08-29 11:42:00,
2014-08-29 04:47:00,71.4,56.3,29.71,WNW,300,0.0,0.0,59,0.00,,,0.00,Wunderground v.1.15,2014-08-29 11:47:00,
2014-08-29 04:52:00,71.3,56.7,29.71,WNW,300,0.0,0.0,60,0.00,,,0.00,Wunderground v.1.15,2014-08-29 11:52:00,
2014-08-29 04:57:00,71.1,56.0,29.71,WNW,300,0.0,0.0,59,0.00,,,0.00,Wunderground v.1.15,2014-08-29 11:57:00,
2014-08-29 05:02:00,70.8,55.8,29.71,WNW,300,0.0,0.0,59,0.00,,,0.00,Wunderground v.1.15,2014-08-29 12:02:00,
2014-08-29 05:07:00,70.5,54.5,29.71,WNW,300,0.0,0.0,57,0.00,,,0.00,Wunderground v.1.15,2014-08-29 12:07:00,
2014-08-29 05:12:00,70.3,54.8,29.71,WNW,300,0.0,0.0,58,0.00,,,0.00,Wunderground v.1.15,2014-08-29 12:12:00,
2014-08-29 05:17:00,70.0,55.0,29.71,WNW,300,0.0,0.0,59,0.00,,,0.00,Wunderground v.1.15,2014-08-29 12:17:00,
2014-08-29 05:22:00,69.9,55.8,29.72,WNW,300,0.0,0.0,61,0.00,,,0.00,Wunderground v.1.15,2014-08-29 12:22:00,
2014-08-29 05:27:00,69.7,54.7,29.72,WNW,300,0.0,0.0,59,0.00,,,0.00,Wunderground v.1.15,2014-08-29 12:27:00,
2014-08-29 05:32:00,69.6,55.1,29.72,WNW,300,0.0,0.0,60,0.00,,,0.00,Wunderground v.1.15,2014-08-29 12:32:00,
2014-08-29 05:37:00,69.5,55.0,29.72,WNW,300,0.0,0.0,60,0.00,,,0.00,Wunderground v.1.15,2014-08-29 12:37:00,
2014-08-29 05:42:00,69.4,54.9,29.72,WNW,300,0.0,0.0,60,0.00,,,0.00,Wunderground v.1.15,2014-08-29 12:42:00,
2014-08-29 05:47:00,69.2,54.7,29.72,WNW,300,0.0,0.0,60,0.00,,,0.00,Wunderground v.1.15,2014-08-29 12:47:00,
2014-08-29 05:52:00,69.1,54.6,29.72,WNW,300,0.0,0.0,60,0.00,,,0.00,Wunderground v.1.15,2014-08-29 12:52:00,
2014-08-29 05:57:00,69.0,54.5,29.72,WNW,300,0.0,0.0,60,0.00,,,0.00,Wunderground v.1.15,2014-08-29 12:57:00,
2014-08-29 06:02:00,68.9,54.4,29.73,WNW,300,0.0,0.0,60,0.00,,,0.00,Wunderground v.1.15,2014-08-29 13:02:00,
2014-08-29 06:08:00,68.9,54.4,29.73,WNW,300,0.0,0.0,60,0.00,,,0.00,Wunderground v.1.15,2014-08-29 13:08:00,
2014-08-29 06:13:00,68.8,54.8,29.73,WNW,300,0.0,0.0,61,0.00,,,0.00,Wunderground v.1.15,2014-08-29 13:13:00,
2014-08-29 06:18:00,68.8,54.3,29.73,WNW,300,0.0,0.0,60,0.00,,,0.00,Wunderground v.1.15,2014-08-29 13:18:00,
2014-08-29 06:23:00,68.9,54.4,29.73,WNW,300,0.0,0.0,60,0.00,,,0.00,Wunderground v.1.15,2014-08-29 13:23:00,
2014-08-29 06:28:00,69.1,55.1,29.73,WNW,300,0.0,0.0,61,0.00,,,0.00,Wunderground v.1.15,2014-08-29 13:28:00,
2014-08-29 06:33:00,69.5,55.5,29.73,WNW,300,0.0,0.0,61,0.00,,,0.00,Wunderground v.1.15,2014-08-29 13:33:00,
2014-08-29 06:38:00,70.2,55.2,29.73,WNW,300,0.0,0.0,59,0.00,,,0.00,Wunderground v.1.15,2014-08-29 13:38:00,
2014-08-29 06:43:00,70.6,55.6,29.74,WNW,300,0.0,0.0,59,0.00,,,0.00,Wunderground v.1.15,2014-08-29 13:43:00,
2014-08-29 06:48:00,71.0,55.9,29.74,WNW,300,0.0,0.0,59,0.00,,,0.00,Wunderground v.1.15,2014-08-29 13:48:00,
2014-08-29 06:53:00,71.4,55.9,29.74,WNW,300,0.0,0.0,58,0.00,,,0.00,Wunderground v.1.15,2014-08-29 13:53:00,
2014-08-29 06:58:00,71.8,56.2,29.74,WNW,300,0.0,0.0,58,0.00,,,0.00,Wunderground v.1.15,2014-08-29 13:58:00,
2014-08-29 07:03:00,72.7,56.1,29.74,WNW,300,0.0,0.0,56,0.00,,,0.00,Wunderground v.1.15,2014-08-29 14:03:00,
2014-08-29 07:08:00,73.6,56.4,29.74,WNW,300,0.0,0.0,55,0.00,,,0.00,Wunderground v.1.15,2014-08-29 14:08:00,
2014-08-29 07:13:00,74.4,56.2,29.74,WNW,300,1.0,3.0,53,0.00,,,0.00,Wunderground v.1.15,2014-08-29 14:13:00,
2014-08-29 07:18:00,74.9,56.6,29.74,WNW,300,0.0,3.0,53,0.00,,,0.00,Wunderground v.1.15,2014-08-29 14:18:00,
2014-08-29 07:23:00,75.4,56.0,29.74,WNW,300,0.0,3.0,51,0.00,,,0.00,Wunderground v.1.15,2014-08-29 14:23:00,
2014-08-29 07:28:00,75.9,55.9,29.74,WNW,300,0.0,3.0,50,0.00,,,0.00,Wunderground v.1.15,2014-08-29 14:28:00,
2014-08-29 07:33:00,76.4,56.4,29.74,WNW,300,0.0,0.0,50,0.00,,,0.00,Wunderground v.1.15,2014-08-29 14:33:00,
2014-08-29 07:38:00,76.9,56.3,29.75,WNW,300,0.0,0.0,49,0.00,,,0.00,Wunderground v.1.15,2014-08-29 14:38:00,
2014-08-29 07:43:00,77.6,55.8,29.74,WNW,300,0.0,1.0,47,0.00,,,0.00,Wunderground v.1.15,2014-08-29 14:43:00,
2014-08-29 07:48:00,78.3,55.8,29.74,WNW,300,0.0,1.0,46,0.00,,,0.00,Wunderground v.1.15,2014-08-29 14:48:00,
2014-08-29 07:53:00,78.8,56.3,29.74,WNW,300,2.0,2.0,46,0.00,,,0.00,Wunderground v.1.15,2014-08-29 14:53:00,
2014-08-29 07:58:00,79.3,56.1,29.74,WNW,300,0.0,3.0,45,0.00,,,0.00,Wunderground v.1.15,2014-08-29 14:58:00,
2014-08-29 08:03:00,79.8,56.6,29.74,WNW,300,0.0,4.0,45,0.00,,,0.00,Wunderground v.1.15,2014-08-29 15:03:00,
2014-08-29 08:08:00,80.3,56.4,29.74,WNW,300,3.0,4.0,44,0.00,,,0.00,Wunderground v.1.15,2014-08-29 15:08:00,
2014-08-29 08:13:00,80.9,56.3,29.74,WNW,300,1.0,1.0,43,0.00,,,0.00,Wunderground v.1.15,2014-08-29 15:13:00,
2014-08-29 08:18:00,81.6,55.6,29.75,WNW,300,0.0,2.0,41,0.00,,,0.00,Wunderground v.1.15,2014-08-29 15:18:00,
2014-08-29 08:23:00,82.2,56.8,29.75,WNW,300,2.0,3.0,42,0.00,,,0.00,Wunderground v.1.15,2014-08-29 15:23:00,
2014-08-29 08:28:00,82.8,56.0,29.75,WNW,300,0.0,5.0,40,0.00,,,0.00,Wunderground v.1.15,2014-08-29 15:28:00,
2014-08-29 08:33:00,83.3,55.8,29.75,WNW,300,0.0,1.0,39,0.00,,,0.00,Wunderground v.1.15,2014-08-29 15:33:00,
2014-08-29 08:38:00,83.7,55.4,29.75,WNW,300,0.0,5.0,38,0.00,,,0.00,Wunderground v.1.15,2014-08-29 15:38:00,
2014-08-29 08:43:00,84.3,55.2,29.75,WNW,292,2.0,4.0,37,0.00,,,0.00,Wunderground v.1.15,2014-08-29 15:43:00,
2014-08-29 08:48:00,84.9,55.0,29.75,WNW,291,0.0,4.0,36,0.00,,,0.00,Wunderground v.1.15,2014-08-29 15:48:00,
2014-08-29 08:53:00,85.3,53.8,29.75,WNW,291,0.0,1.0,34,0.00,,,0.00,Wunderground v.1.15,2014-08-29 15:53:00,
2014-08-29 08:58:00,85.8,54.2,29.75,WNW,291,0.0,1.0,34,0.00,,,0.00,Wunderground v.1.15,2014-08-29 15:58:00,
2014-08-29 09:04:00,86.3,54.6,29.75,NW,318,0.0,4.0,34,0.00,,,0.00,Wunderground v.1.15,2014-08-29 16:04:00,
2014-08-29 09:08:00,86.7,55.0,29.75,NW,318,0.0,4.0,34,0.00,,,0.00,Wunderground v.1.15,2014-08-29 16:08:00,
2014-08-29 09:13:00,87.1,53.7,29.75,NW,318,1.0,2.0,32,0.00,,,0.00,Wunderground v.1.15,2014-08-29 16:13:00,
2014-08-29 09:18:00,87.4,54.8,29.75,NW,318,1.0,2.0,33,0.00,,,0.00,Wunderground v.1.15,2014-08-29 16:18:00,
2014-08-29 09:23:00,87.8,54.3,29.75,NW,321,3.0,6.0,32,0.00,,,0.00,Wunderground v.1.15,2014-08-29 16:23:00,
2014-08-29 09:29:00,88.2,53.7,29.75,NW,322,0.0,6.0,31,0.00,,,0.00,Wunderground v.1.15,2014-08-29 16:29:00,
2014-08-29 09:34:00,88.8,53.4,29.76,NW,322,0.0,1.0,30,0.00,,,0.00,Wunderground v.1.15,2014-08-29 16:34:00,
2014-08-29 09:39:00,89.3,53.8,29.75,NW,322,0.0,1.0,30,0.00,,,0.00,Wunderground v.1.15,2014-08-29 16:39:00,
2014-08-29 09:44:00,89.8,53.3,29.75,NW,325,0.0,3.0,29,0.00,,,0.00,Wunderground v.1.15,2014-08-29 16:44:00,
2014-08-29 09:49:00,90.2,51.7,29.75,NW,325,1.0,3.0,27,0.00,,,0.00,Wunderground v.1.15,2014-08-29 16:49:00,
2014-08-29 09:54:00,90.8,53.2,29.75,NW,325,0.0,1.0,28,0.00,,,0.00,Wunderground v.1.15,2014-08-29 16:54:00,
2014-08-29 09:59:00,91.6,53.9,29.75,NW,325,0.0,2.0,28,0.00,,,0.00,Wunderground v.1.15,2014-08-29 16:59:00,
2014-08-29 10:04:00,92.1,53.3,29.75,NW,325,1.0,1.0,27,0.00,,,0.00,Wunderground v.1.15,2014-08-29 17:04:00,
2014-08-29 10:09:00,92.3,52.5,29.75,NW,325,0.0,3.0,26,0.00,,,0.00,Wunderground v.1.15,2014-08-29 17:09:00,
2014-08-29 10:14:00,92.7,53.8,29.75,NW,325,0.0,0.0,27,0.00,,,0.00,Wunderground v.1.15,2014-08-29 17:14:00,
2014-08-29 10:19:00,93.0,53.0,29.75,NW,325,0.0,2.0,26,0.00,,,0.00,Wunderground v.1.15,2014-08-29 17:19:00,
2014-08-29 10:24:00,93.3,53.3,29.75,NW,325,0.0,1.0,26,0.00,,,0.00,Wunderground v.1.15,2014-08-29 17:24:00,
2014-08-29 10:29:00,93.9,51.6,29.74,NW,325,0.0,1.0,24,0.00,,,0.00,Wunderground v.1.15,2014-08-29 17:29:00,
2014-08-29 10:34:00,94.5,52.1,29.74,NW,325,0.0,0.0,24,0.00,,,0.00,Wunderground v.1.15,2014-08-29 17:34:00,
2014-08-29 10:39:00,94.7,52.3,29.74,NW,325,0.0,3.0,24,0.00,,,0.00,Wunderground v.1.15,2014-08-29 17:39:00,
2014-08-29 10:44:00,94.9,51.3,29.74,NW,325,0.0,2.0,23,0.00,,,0.00,Wunderground v.1.15,2014-08-29 17:44:00,
2014-08-29 10:49:00,95.2,51.6,29.74,NW,325,1.0,2.0,23,0.00,,,0.00,Wunderground v.1.15,2014-08-29 17:49:00,
2014-08-29 10:54:00,96.1,52.3,29.74,NW,325,0.0,0.0,23,0.00,,,0.00,Wunderground v.1.15,2014-08-29 17:54:00,
2014-08-29 10:59:00,96.8,49.1,29.73,NW,325,3.0,4.0,20,0.00,,,0.00,Wunderground v.1.15,2014-08-29 17:59:00,
2014-08-29 11:04:00,96.9,49.2,29.73,NW,325,0.0,2.0,20,0.00,,,0.00,Wunderground v.1.15,2014-08-29 18:04:00,
2014-08-29 11:09:00,97.0,49.3,29.73,NW,325,0.0,3.0,20,0.00,,,0.00,Wunderground v.1.15,2014-08-29 18:09:00,
2014-08-29 11:14:00,97.0,47.9,29.73,NW,325,0.0,4.0,19,0.00,,,0.00,Wunderground v.1.15,2014-08-29 18:14:00,
2014-08-29 11:19:00,97.2,48.1,29.73,NW,325,3.0,4.0,19,0.00,,,0.00,Wunderground v.1.15,2014-08-29 18:19:00,
2014-08-29 11:24:00,97.3,48.2,29.73,NW,325,3.0,5.0,19,0.00,,,0.00,Wunderground v.1.15,2014-08-29 18:24:00,
2014-08-29 11:29:00,97.1,49.4,29.73,NNW,328,3.0,3.0,20,0.00,,,0.00,Wunderground v.1.15,2014-08-29 18:29:00,
2014-08-29 11:34:00,97.2,48.1,29.72,NNW,328,0.0,7.0,19,0.00,,,0.00,Wunderground v.1.15,2014-08-29 18:34:00,
2014-08-29 11:39:00,97.3,46.7,29.72,NNW,327,1.0,1.0,18,0.00,,,0.00,Wunderground v.1.15,2014-08-29 18:39:00,
2014-08-29 11:44:00,97.8,47.1,29.72,NNW,327,0.0,5.0,18,0.00,,,0.00,Wunderground v.1.15,2014-08-29 18:44:00,
2014-08-29 11:49:00,98.0,45.8,29.72,NNW,328,0.0,1.0,17,0.00,,,0.00,Wunderground v.1.15,2014-08-29 18:49:00,
2014-08-29 11:55:00,98.6,46.2,29.72,NNW,328,0.0,4.0,17,0.00,,,0.00,Wunderground v.1.15,2014-08-29 18:55:00,
2014-08-29 12:00:00,98.7,43.0,29.71,NNW,335,6.0,8.0,15,0.00,,,0.00,Wunderground v.1.15,2014-08-29 19:00:00,
2014-08-29 12:05:00,98.7,44.7,29.71,NNW,334,0.0,8.0,16,0.00,,,0.00,Wunderground v.1.15,2014-08-29 19:05:00,
2014-08-29 12:10:00,99.4,41.8,29.71,NNW,334,0.0,1.0,14,0.00,,,0.00,Wunderground v.1.15,2014-08-29 19:10:00,
2014-08-29 12:15:00,99.7,43.8,29.71,NW,306,3.0,6.0,15,0.00,,,0.00,Wunderground v.1.15,2014-08-29 19:15:00,
2014-08-29 12:20:00,99.7,42.0,29.71,WNW,296,8.0,8.0,14,0.00,,,0.00,Wunderground v.1.15,2014-08-29 19:20:00,
2014-08-29 12:25:00,99.6,43.7,29.71,NW,309,2.0,9.0,15,0.00,,,0.00,Wunderground v.1.15,2014-08-29 19:25:00,
2014-08-29 12:30:00,99.9,42.2,29.71,NW,309,4.0,5.0,14,0.00,,,0.00,Wunderground v.1.15,2014-08-29 19:30:00,
2014-08-29 12:35:00,100.4,42.6,29.70,WNW,293,0.0,7.0,14,0.00,,,0.00,Wunderground v.1.15,2014-08-29 19:35:00,
2014-08-29 12:40:00,100.5,44.5,29.70,NNW,332,4.0,7.0,15,0.00,,,0.00,Wunderground v.1.15,2014-08-29 19:40:00,
2014-08-29 12:45:00,100.3,42.5,29.70,NNW,331,1.0,7.0,14,0.00,,,0.00,Wunderground v.1.15,2014-08-29 19:45:00,
2014-08-29 12:50:00,100.2,42.4,29.70,NNW,331,4.0,4.0,14,0.00,,,0.00,Wunderground v.1.15,2014-08-29 19:50:00,
2014-08-29 12:55:00,100.3,42.5,29.70,NNW,333,0.0,6.0,14,0.00,,,0.00,Wunderground v.1.15,2014-08-29 19:55:00,
2014-08-29 13:00:00,100.5,42.7,29.69,NW,319,0.0,6.0,14,0.00,,,0.00,Wunderground v.1.15,2014-08-29 20:00:00,
2014-08-29 13:05:00,100.7,42.8,29.69,NW,312,0.0,7.0,14,0.00,,,0.00,Wunderground v.1.15,2014-08-29 20:05:00,
2014-08-29 13:10:00,100.8,42.9,29.69,NW,320,2.0,10.0,14,0.00,,,0.00,Wunderground v.1.15,2014-08-29 20:10:00,
2014-08-29 13:15:00,100.7,44.6,29.69,NW,317,3.0,10.0,15,0.00,,,0.00,Wunderground v.1.15,2014-08-29 20:15:00,
2014-08-29 13:20:00,101.0,43.0,29.69,West,278,0.0,2.0,14,0.00,,,0.00,Wunderground v.1.15,2014-08-29 20:20:00,
2014-08-29 13:25:00,100.9,43.0,29.69,WNW,283,0.0,7.0,14,0.00,,,0.00,Wunderground v.1.15,2014-08-29 20:25:00,
2014-08-29 13:30:00,101.4,43.4,29.68,WNW,294,4.0,4.0,14,0.00,,,0.00,Wunderground v.1.15,2014-08-29 20:30:00,
2014-08-29 13:35:00,101.1,43.1,29.68,NNW,327,1.0,8.0,14,0.00,,,0.00,Wunderground v.1.15,2014-08-29 20:35:00,
2014-08-29 13:40:00,101.0,43.0,29.68,NNW,327,0.0,3.0,14,0.00,,,0.00,Wunderground v.1.15,2014-08-29 20:40:00,
2014-08-29 13:45:00,101.3,46.8,29.68,NW,319,0.0,5.0,16,0.00,,,0.00,Wunderground v.1.15,2014-08-29 20:45:00,
2014-08-29 13:50:00,101.6,43.5,29.67,NW,321,0.0,1.0,14,0.00,,,0.00,Wunderground v.1.15,2014-08-29 20:50:00,
2014-08-29 13:55:00,101.8,43.7,29.67,South,186,4.0,4.0,14,0.00,,,0.00,Wunderground v.1.15,2014-08-29 20:55:00,
2014-08-29 14:00:00,102.5,44.2,29.67,South,183,4.0,5.0,14,0.00,,,0.00,Wunderground v.1.15,2014-08-29 21:00:00,
2014-08-29 14:05:00,102.8,44.5,29.67,SW,228,0.0,6.0,14,0.00,,,0.00,Wunderground v.1.15,2014-08-29 21:05:00,
2014-08-29 14:10:00,102.7,42.4,29.67,SW,236,0.0,2.0,13,0.00,,,0.00,Wunderground v.1.15,2014-08-29 21:10:00,
2014-08-29 14:16:00,102.5,44.2,29.66,NNW,330,4.0,5.0,14,0.00,,,0.00,Wunderground v.1.15,2014-08-29 21:16:00,
2014-08-29 14:21:00,101.9,43.7,29.66,North,355,2.0,3.0,14,0.00,,,0.00,Wunderground v.1.15,2014-08-29 21:21:00,
2014-08-29 14:26:00,101.8,43.7,29.66,NNW,327,5.0,5.0,14,0.00,,,0.00,Wunderground v.1.15,2014-08-29 21:26:00,
2014-08-29 14:31:00,101.8,43.7,29.66,NNW,327,4.0,8.0,14,0.00,,,0.00,Wunderground v.1.15,2014-08-29 21:31:00,
2014-08-29 14:36:00,101.7,43.6,29.66,North,360,1.0,9.0,14,0.00,,,0.00,Wunderground v.1.15,2014-08-29 21:36:00,
2014-08-29 14:41:00,101.7,43.6,29.65,NNW,336,2.0,5.0,14,0.00,,,0.00,Wunderground v.1.15,2014-08-29 21:41:00,
2014-08-29 14:46:00,101.7,43.6,29.66,NNW,332,3.0,6.0,14,0.00,,,0.00,Wunderground v.1.15,2014-08-29 21:46:00,
2014-08-29 14:51:00,101.6,43.5,29.65,NNW,338,4.0,4.0,14,0.00,,,0.00,Wunderground v.1.15,2014-08-29 21:51:00,
2014-08-29 14:56:00,101.6,43.5,29.65,NNW,340,0.0,5.0,14,0.00,,,0.00,Wunderground v.1.15,2014-08-29 21:56:00,
2014-08-29 15:01:00,101.4,45.2,29.65,NNE,15,4.0,4.0,15,0.00,,,0.00,Wunderground v.1.15,2014-08-29 22:01:00,
2014-08-29 15:06:00,100.9,43.0,29.65,NE,36,0.0,8.0,14,0.00,,,0.00,Wunderground v.1.15,2014-08-29 22:06:00,
2014-08-29 15:11:00,101.2,43.2,29.64,North,5,5.0,5.0,14,0.00,,,0.00,Wunderground v.1.15,2014-08-29 22:11:00,
2014-08-29 15:16:00,101.5,45.2,29.64,NW,316,1.0,5.0,15,0.00,,,0.00,Wunderground v.1.15,2014-08-29 22:16:00,
2014-08-29 15:21:00,102.0,43.8,29.64,NW,313,3.0,3.0,14,0.00,,,0.00,Wunderground v.1.15,2014-08-29 22:21:00,
2014-08-29 15:26:00,102.2,42.1,29.64,WNW,303,5.0,8.0,13,0.00,,,0.00,Wunderground v.1.15,2014-08-29 22:26:00,
2014-08-29 15:31:00,102.2,42.1,29.64,NW,313,5.0,7.0,13,0.00,,,0.00,Wunderground v.1.15,2014-08-29 22:31:00,
2014-08-29 15:36:00,101.9,41.8,29.64,NW,311,4.0,9.0,13,0.00,,,0.00,Wunderground v.1.15,2014-08-29 22:36:00,
2014-08-29 15:41:00,101.7,41.7,29.64,NNW,343,3.0,6.0,13,0.00,,,0.00,Wunderground v.1.15,2014-08-29 22:41:00,
2014-08-29 15:46:00,101.6,41.6,29.64,NNW,348,1.0,7.0,13,0.00,,,0.00,Wunderground v.1.15,2014-08-29 22:46:00,
2014-08-29 15:51:00,101.6,41.6,29.64,NNW,348,3.0,4.0,13,0.00,,,0.00,Wunderground v.1.15,2014-08-29 22:51:00,
2014-08-29 15:56:00,101.5,41.5,29.64,NNW,348,0.0,4.0,13,0.00,,,0.00,Wunderground v.1.15,2014-08-29 22:56:00,
2014-08-29 16:01:00,101.6,41.6,29.64,NNW,328,2.0,4.0,13,0.00,,,0.00,Wunderground v.1.15,2014-08-29 23:01:00,
2014-08-29 16:06:00,101.7,41.7,29.64,NW,322,2.0,8.0,13,0.00,,,0.00,Wunderground v.1.15,2014-08-29 23:06:00,
2014-08-29 16:11:00,101.7,41.7,29.64,NW,311,2.0,7.0,13,0.00,,,0.00,Wunderground v.1.15,2014-08-29 23:11:00,
2014-08-29 16:16:00,101.8,39.7,29.64,NW,307,0.0,7.0,12,0.00,,,0.00,Wunderground v.1.15,2014-08-29 23:16:00,
2014-08-29 16:21:00,102.1,39.9,29.64,WNW,301,1.0,4.0,12,0.00,,,0.00,Wunderground v.1.15,2014-08-29 23:21:00,
2014-08-29 16:26:00,102.1,42.0,29.64,NW,304,0.0,4.0,13,0.00,,,0.00,Wunderground v.1.15,2014-08-29 23:26:00,
2014-08-29 16:31:00,102.1,42.0,29.64,NW,311,1.0,4.0,13,0.00,,,0.00,Wunderground v.1.15,2014-08-29 23:31:00,
2014-08-29 16:36:00,102.0,39.8,29.64,NW,308,1.0,5.0,12,0.00,,,0.00,Wunderground v.1.15,2014-08-29 23:36:00,
2014-08-29 16:41:00,102.0,41.9,29.63,NW,311,1.0,5.0,13,0.00,,,0.00,Wunderground v.1.15,2014-08-29 23:41:00,
2014-08-29 16:46:00,101.8,41.7,29.63,North,355,3.0,5.0,13,0.00,,,0.00,Wunderground v.1.15,2014-08-29 23:46:00,
2014-08-29 16:51:00,101.4,41.4,29.64,North,360,4.0,5.0,13,0.00,,,0.00,Wunderground v.1.15,2014-08-29 23:51:00,
2014-08-29 16:56:00,100.9,41.0,29.63,North,360,0.0,5.0,13,0.00,,,0.00,Wunderground v.1.15,2014-08-29 23:56:00,
2014-08-29 17:01:00,100.7,40.9,29.63,NNW,336,0.0,4.0,13,0.00,,,0.00,Wunderground v.1.15,2014-08-30 00:01:00,
2014-08-29 17:06:00,100.7,42.8,29.63,NNW,336,0.0,4.0,14,0.00,,,0.00,Wunderground v.1.15,2014-08-30 00:06:00,
2014-08-29 17:11:00,100.8,41.0,29.64,NNW,336,0.0,5.0,13,0.00,,,0.00,Wunderground v.1.15,2014-08-30 00:11:00,
2014-08-29 17:16:00,100.9,43.0,29.63,NNW,336,0.0,5.0,14,0.00,,,0.00,Wunderground v.1.15,2014-08-30 00:16:00,
2014-08-29 17:21:00,100.9,41.0,29.63,NNW,336,3.0,5.0,13,0.00,,,0.00,Wunderground v.1.15,2014-08-30 00:21:00,
2014-08-29 17:26:00,100.8,42.9,29.63,NNW,336,0.0,5.0,14,0.00,,,0.00,Wunderground v.1.15,2014-08-30 00:26:00,
2014-08-29 17:31:00,100.7,40.9,29.63,NNW,337,0.0,6.0,13,0.00,,,0.00,Wunderground v.1.15,2014-08-30 00:31:00,
2014-08-29 17:36:00,100.5,40.7,29.63,NNW,337,0.0,6.0,13,0.00,,,0.00,Wunderground v.1.15,2014-08-30 00:36:00,
2014-08-29 17:41:00,100.5,42.7,29.63,NNW,337,1.0,2.0,14,0.00,,,0.00,Wunderground v.1.15,2014-08-30 00:41:00,
2014-08-29 17:46:00,100.4,40.7,29.63,NNW,337,2.0,5.0,13,0.00,,,0.00,Wunderground v.1.15,2014-08-30 00:46:00,
2014-08-29 17:51:00,100.0,42.3,29.63,NNW,344,2.0,6.0,14,0.00,,,0.00,Wunderground v.1.15,2014-08-30 00:51:00,
2014-08-29 17:56:00,99.7,42.0,29.63,NNW,344,0.0,6.0,14,0.00,,,0.00,Wunderground v.1.15,2014-08-30 00:56:00,
2014-08-29 18:01:00,99.5,41.9,29.63,NNW,343,2.0,5.0,14,0.00,,,0.00,Wunderground v.1.15,2014-08-30 01:01:00,
2014-08-29 18:07:00,99.3,43.5,29.63,NNW,342,3.0,5.0,15,0.00,,,0.00,Wunderground v.1.15,2014-08-30 01:07:00,
2014-08-29 18:12:00,99.1,41.6,29.63,NNW,342,1.0,3.0,14,0.00,,,0.00,Wunderground v.1.15,2014-08-30 01:12:00,
2014-08-29 18:17:00,98.9,43.2,29.63,NNW,342,0.0,3.0,15,0.00,,,0.00,Wunderground v.1.15,2014-08-30 01:17:00,
2014-08-29 18:22:00,98.7,43.0,29.63,NNW,342,2.0,2.0,15,0.00,,,0.00,Wunderground v.1.15,2014-08-30 01:22:00,
2014-08-29 18:27:00,98.5,42.9,29.63,NNW,342,0.0,2.0,15,0.00,,,0.00,Wunderground v.1.15,2014-08-30 01:27:00,
2014-08-29 18:32:00,98.3,42.7,29.63,NNW,342,0.0,2.0,15,0.00,,,0.00,Wunderground v.1.15,2014-08-30 01:32:00,
2014-08-29 18:37:00,98.0,42.5,29.63,NNW,342,0.0,2.0,15,0.00,,,0.00,Wunderground v.1.15,2014-08-30 01:37:00,
2014-08-29 18:42:00,97.7,43.9,29.63,NNW,342,0.0,0.0,16,0.00,,,0.00,Wunderground v.1.15,2014-08-30 01:42:00,
2014-08-29 18:47:00,97.3,43.6,29.63,NNW,342,0.0,0.0,16,0.00,,,0.00,Wunderground v.1.15,2014-08-30 01:47:00,
2014-08-29 18:52:00,96.8,43.2,29.63,NNW,342,0.0,0.0,16,0.00,,,0.00,Wunderground v.1.15,2014-08-30 01:52:00,
2014-08-29 18:57:00,96.2,44.3,29.64,NNW,342,0.0,0.0,17,0.00,,,0.00,Wunderground v.1.15,2014-08-30 01:57:00,
2014-08-29 19:02:00,95.5,43.8,29.64,NNW,342,0.0,0.0,17,0.00,,,0.00,Wunderground v.1.15,2014-08-30 02:02:00,
2014-08-29 19:07:00,95.0,44.9,29.64,NNW,342,0.0,0.0,18,0.00,,,0.00,Wunderground v.1.15,2014-08-30 02:07:00,
2014-08-29 19:12:00,94.5,45.9,29.64,NNW,342,0.0,0.0,19,0.00,,,0.00,Wunderground v.1.15,2014-08-30 02:12:00,
2014-08-29 19:17:00,94.0,45.5,29.64,NNW,342,0.0,0.0,19,0.00,,,0.00,Wunderground v.1.15,2014-08-30 02:17:00,